Regional Weather Roundup
Issued by NWS

Home | Current Version | Previous Version | Graphics & Text | Print | Product List | Glossary On
Versions: 1 2 3 4 5 6 7 8 9 10 11 12 13 14 15 16 17 18 19 20 21 22 23 24 25 26 27 28 29 30 31 32 33 34 35 36 37 38 39 40 41 42 43 44 45 46 47 48 49 50
000
ASUS43 KBIS 201359
RWRND

NORTH DAKOTA REGIONAL WEATHER ROUNDUP
NATIONAL WEATHER SERVICE BISMARCK ND
900 AM CDT SUN APR 20 2014

NOTE: "FAIR" INDICATES FEW OR NO CLOUDS BELOW 12,000 FEET WITH NO
SIGNIFICANT WEATHER AND/OR OBSTRUCTIONS TO VISIBILITY.


NDZ001>003-009>011-017-201500-
NORTHWEST NORTH DAKOTA

CITY           SKY/WX    TMP DP  RH WIND       PRES   REMARKS
WILLISTON      CLOUDY    43  35  73 CALM      29.85F
MINOT          SUNNY     42  35  76 CALM      29.90S
$$

NDZ018>021-031>035-040>046-201500-
SOUTHWEST NORTH DAKOTA

CITY           SKY/WX    TMP DP  RH WIND       PRES   REMARKS
BISMARCK       SUNNY     46  32  58 SE7       29.97R
DICKINSON      MOSUNNY   50  29  44 S16       29.87S
GARRISON         N/A     43  37  79 SE7       29.92S
HETTINGER ARPT MOSUNNY   46  30  53 SE5       29.93R
$$

NDZ004>008-012>016-024-026-027-054-201500-
NORTHEAST NORTH DAKOTA

CITY           SKY/WX    TMP DP  RH WIND       PRES   REMARKS
GRAND FORKS    MOSUNNY   43  35  73 CALM      30.03F
DEVILS LAKE    SUNNY     39  32  75 SE8       29.99S
$$

NDZ022-023-025-028>030-036>039-047>053-201500-
SOUTHEAST NORTH DAKOTA

CITY           SKY/WX    TMP DP  RH WIND       PRES   REMARKS
FARGO          SUNNY     49  36  61 VRB6      30.02F
$$




USA.gov is the U.S. government's official web portal to all federal, state and local government web resources and services.